Regional Weather Roundup
Issued by NWS

Home | Current Version | Previous Version | Graphics & Text | Print | Product List | Glossary On
Versions: 1 2 3 4 5 6 7 8 9 10 11 12 13 14 15 16 17 18 19 20 21 22 23 24 25 26 27 28 29 30 31 32 33 34 35 36 37 38 39 40 41 42 43 44 45 46 47 48 49 50
000
ASUS43 KFSD 140210
RWRSD

WEATHER ROUNDUP FOR SOUTH DAKOTA
NATIONAL WEATHER SERVICE SIOUX FALLS SD
800 PM CST WED DEC 13 2017

NOTE: "FAIR" INDICATES FEW OR NO CLOUDS BELOW 12,000 FEET WITH NO
SIGNIFICANT WEATHER AND/OR OBSTRUCTIONS TO VISIBILITY.


SDZ001>005-009-010-012>017-140300-
NORTHWEST AND NORTH CENTRAL SOUTH DAKOTA

CITY           SKY/WX    TMP DP  RH WIND       PRES   REMARKS
BUFFALO          N/A     33  25  72 W10       30.00R WCI  25
FAITH            N/A     36  24  62 NW17      30.02R
MOBRIDGE       PTCLDY    32  25  75 NW10      29.98R WCI  24
$$

SDZ012>016-024>037-041>051-057-063-072>074-140300-
SOUTHWEST AND SOUTH CENTRAL SOUTH DAKOTA

CITY           SKY/WX    TMP DP  RH WIND       PRES   REMARKS
RAPID CTY ARPT CLOUDY    39  24  55 NW20      30.06R
PIERRE         CLOUDY    33  26  75 N9        30.01R WCI  25
CUSTER         CLOUDY    32  16  51 NW5       30.03S WCI  27
ELLSWORTH AFB  CLOUDY    39  24  54 NW22      30.04S
PHILIP         CLOUDY    40  24  53 NW17      30.04R
PINE RIDGE     PTCLDY    38  24  57 N13G20    30.07R
SPEARFISH      CLOUDY    37  23  56 W13G23    30.08S
WINNER         FAIR      33  25  72 N6        30.02R WCI  28
$$

SDZ004>011-016>023-039-040-140300-
NORTHEAST SOUTH DAKOTA

CITY           SKY/WX    TMP DP  RH WIND       PRES   REMARKS
ABERDEEN       CLOUDY    34  24  67 NW10      29.96S WCI  26
WATERTOWN      CLOUDY    27  26  96 N15       29.91R WCI  15
BROOKINGS      CLOUDY    28  25  86 N16       29.92R WCI  17
SISSETON         N/A     25  22  88 N14       29.96R WCI  13
$$

SDZ017-020-022-023-036>040-048>070-140300-
SOUTHEAST SOUTH DAKOTA

CITY           SKY/WX    TMP DP  RH WIND       PRES   REMARKS
SIOUX FALLS    FLURRIES  34  30  85 N17       29.93R WCI  23
HURON          CLOUDY    35  24  64 N17       29.96R WCI  25
CHAMBERLAIN    CLOUDY    36  28  71 NW8       30.00R
MITCHELL       CLOUDY    37  25  61 N20G28    29.98R
YANKTON        CLOUDY    37  25  61 N22G30    29.96R
$$

ABBREVIATIONS USED IN REMARKS
   TC - TEMPERATURE IN CELSIUS
  WCI - WIND CHILL INDEX
   HX - HEAT INDEX
  VSB - VISIBILITY





USA.gov is the U.S. government's official web portal to all federal, state and local government web resources and services.